Location: Observatorio Las Palmas
(29.0667°N, 110.9333°W)
Time: 14:01:58
(UTC-07:00)

Daily predictions for brighter satellites

Satellite Brightness Start Highest point End
(mag) Time Altitude Azimuth Time Altitude Azimuth Time Altitude Azimuth
Envisat 3.9 19:10:14 10° SE 19:14:33 29° ENE 19:18:53 10° NNE
OAO 2 Rocket 3.8 19:12:35 10° WNW 19:17:47 58° NNE 19:22:53 10° E
Cosmos 1300 4.4 19:15:52 10° SSW 19:19:26 38° W 19:23:02 10° NNW
Cosmos 1809 Rocket 4.5 19:13:55 10° S 19:19:59 65° E 19:26:06 10° NNE
CZ-4 R/B 4.5 19:20:38 10° SW 19:23:03 15° W 19:25:29 10° WNW
Cosmos 2251 Rocket 3.8 19:22:21 10° N 19:27:34 51° ENE 19:32:44 10° SSE
OAO 3 Copernicus 4.3 19:24:00 10° WSW 19:29:02 87° NNW 19:34:05 10° ENE
Delta 128 4.5 19:26:32 10° W 19:31:18 50° SSW 19:36:35 11° ESE
ERS-2 3.3 19:30:15 10° SE 19:33:17 25° ENE 19:36:19 10° NNE
Meteor 2-14 Rocket 4.5 19:27:19 10° S 19:33:17 61° E 19:39:18 10° NNE
SJ-6B 3.2 19:29:43 10° SSE 19:33:34 43° ENE 19:37:21 10° N
HJ-1C 3.3 19:33:49 10° SSE 19:37:06 66° ENE 19:40:26 10° N
YAOGAN 6 4.0 19:35:17 12° ESE 19:37:31 20° ENE 19:40:15 10° NNE
Sakura Rocket 3.2 19:32:32 10° W 19:38:16 86° S 19:42:06 13° E
ATLAS CENTAUR R/B 3.0 19:35:16 10° SW 19:38:34 33° WNW 19:41:57 10° N
Cosmos 1980 3.7 19:33:04 10° S 19:38:41 67° ESE 19:44:19 10° NNE
Cosmos 1633 Rocket 3.5 19:35:08 10° N 19:39:14 40° E 19:43:19 10° SSE
Cosmos 1455 2.2 19:38:23 10° S 19:42:08 62° E 19:45:57 10° NNE
FREGAT/IRIS 3.2 19:39:55 10° S 19:42:48 55° W 19:45:41 10° NNW
Meteor 2-3 Rocket 4.2 19:37:39 10° N 19:42:53 38° E 19:48:07 10° SSE
Meteor 2-16 Rocket 4.5 19:38:33 10° S 19:44:35 62° E 19:50:37 10° NNE
Cosmos 1515 Rocket 4.1 19:41:30 10° SSE 19:45:36 38° E 19:49:45 10° NNE
Meteor 2-15 Rocket 4.5 19:40:53 10° N 19:46:57 63° E 19:52:59 10° SSE
Cosmos 1939 Rocket 3.8 19:46:00 16° ESE 19:48:14 27° ENE 19:51:33 10° NNE
CZ-2D R/B 3.1 19:49:58 10° SSE 19:53:44 84° E 19:57:33 10° N
Cosmos 1844 Rocket 2.8 19:48:34 10° NNW 19:54:14 83° WSW 19:59:52 10° SSE
Cosmos 2333 Rocket 3.2 19:48:49 10° SW 19:54:17 49° WNW 19:59:46 10° N
OAO 3 Rocket 4.3 19:51:09 10° SSW 19:54:54 23° SSE 19:56:17 20° ESE
ATLAS 2AS CENTAUR R/B 3.3 19:49:04 10° NNW 19:56:30 47° ENE 20:01:23 19° ESE
Timation 1 Rocket 4.3 19:51:04 10° NNW 19:57:04 82° ENE 20:02:58 10° SSE
Cosmos 1892 2.6 19:54:39 10° N 19:58:31 86° E 20:02:22 10° S
Cosmos 2219 Rocket 3.9 19:55:14 10° SW 20:00:23 36° WNW 20:05:34 10° N
Cosmos 2228 Rocket 3.0 19:56:57 10° S 20:01:15 61° E 20:05:35 10° NNE
Cosmos 1328 Rocket 3.6 19:57:26 10° S 20:01:50 83° W 20:06:16 10° N
Nadezhda 3 Rocket 4.0 19:55:40 10° N 20:02:01 87° E 20:08:23 10° S
Thor Agena Rocket 3.7 19:57:46 10° N 20:03:03 80° WNW 20:08:19 10° SSW
Cosmos 2237 Rocket 2.4 19:59:52 10° SSW 20:05:27 74° WNW 20:11:05 10° NNE
Meteor 1-27 4.5 20:00:58 10° SSW 20:06:42 74° W 20:12:22 10° N
Cosmos 1844 3.8 20:02:08 10° NNW 20:07:52 84° WSW 20:13:13 12° SSE
Genesis I 3.7 20:04:09 10° NNW 20:08:03 43° ENE 20:09:23 32° ESE
SL-24 R/B - RUBIN 2 4.3 20:07:46 10° NW 20:11:57 50° WSW 20:15:38 14° S
Cosmos 2278 Rocket 2.4 20:16:51 10° N 20:22:22 51° ENE 20:24:26 34° ESE
Haruka 3.1 20:15:36 10° WNW 20:22:57 58° SSW 20:24:11 38° SE
BREEZE-M DEB (TANK) 2.9 20:19:31 10° NW 20:23:35 80° NE 20:24:38 44° ESE
Cosmos 1470 Rocket 3.4 20:20:07 10° N 20:24:32 73° E 20:26:21 35° SSE
Hubble Space Telescope 2.4 20:21:24 10° SSW 20:23:25 20° S 20:23:25 20° S
ASTRO E2 2.8 20:23:14 10° W 20:27:14 71° N 20:28:23 44° ENE
Resurs 01 Rocket 1.5 20:26:38 33° SSE 20:28:36 83° ENE 20:33:02 10° N
Cosmos 1825 2.4 20:27:56 10° N 20:31:18 52° ENE 20:31:18 52° ENE
Fermi 4.2 20:30:16 10° W 20:34:14 45° S 20:34:18 45° S
Cosmos 220 Rocket 4.5 20:33:21 10° NNW 20:37:34 55° WSW 20:39:15 32° SSW
Cosmos 1959 Rocket 4.4 20:32:28 10° S 20:38:39 89° W 20:44:48 10° N
Cosmos 1151 Rocket 4.2 20:36:32 10° SSW 20:40:33 41° W 20:44:35 10° N
Cosmos 407 Rocket 4.5 20:37:13 10° N 20:41:11 29° ENE 20:41:11 29° ENE
deb Centaur AC-2 4.2 20:44:39 10° W 20:48:52 60° SSW 20:48:52 60° SSW
Cosmos 1727 Rocket 4.0 20:45:07 10° N 20:51:08 53° E 20:51:39 51° E
ARGOS 3.8 20:51:59 37° ENE 20:51:59 37° ENE 20:56:20 10° N
Cosmos 1933 Rocket 3.9 20:48:34 10° NNW 20:52:52 60° W 20:53:43 49° SW
H-2A R/B 3.3 20:55:13 25° NE 20:55:13 25° NE 20:58:05 10° NNE
Meteor 2-10 Rocket 3.8 20:51:27 19° SSW 20:55:37 78° W 21:01:27 10° N
SL-16 R/B 2.4 20:51:37 10° SSW 20:57:14 68° WNW 21:02:53 10° NNE
Cosmos 1408 3.7 20:56:51 10° NNW 21:00:08 42° W 21:00:08 42° W
OAO 2 Rocket 3.8 20:57:35 10° WNW 21:02:25 51° SW 21:02:25 51° SW
Cosmos 1452 Rocket 4.4 21:12:39 38° NNE 21:12:39 38° NNE 21:15:53 10° NNE
BREEZE-M DEB (TANK) 4.1 21:07:48 10° SW 21:11:54 75° SE 21:26:39 10° NE
Aurora 2 Rocket 4.5 21:22:20 10° WSW 21:27:47 37° SW 21:27:47 37° SW
ATLAS 2A CENTAUR R/B 3.5 21:15:57 10° WSW 21:35:45 75° S 21:37:35 64° ESE
Cosmos 2297 4.3 21:31:38 10° NNW 21:35:56 53° NNW 21:35:56 53° NNW
Cosmos 2344 3.9 21:29:57 10° SW 21:37:36 63° WNW 21:45:26 10° NNE
CZ-4C R/B 3.7 21:46:06 28° N 21:46:06 28° N 21:48:53 10° NNE
ATLAS 2AS CENTAUR R/B 4.2 21:40:52 10° NW 21:47:01 28° WSW 21:48:52 25° SW
Cosmos 2278 Rocket 4.5 22:02:42 10° WNW 22:05:54 15° W 22:06:20 15° WSW
NOSS 3-4 (A) 4.5 22:10:58 10° NW 22:16:42 52° WNW 22:16:42 52° WNW
NOSS 3-4 (C) 4.4 22:11:04 10° NW 22:16:47 52° WNW 22:16:47 52° WNW
USA 267 4.3 22:14:55 10° NNE 22:29:33 - WSW 22:19:04 38° N
